OSCAR 7 1 07530U 74089B 26095.03893733 -.00000052 00000-0 -34430-4 0 9998 2 07530 101.9951 107.5125 0011868 270.6288 109.0426 12.53696937351351 OSCAR 11 (UOSAT 2) 1 14781U 84021B 26095.19022028 .00002659 00000-0 27716-3 0 9990 2 14781 97.7996 61.6194 0009140 69.7980 290.4221 14.90606767246255 OSCAR 19 (LUSAT) 1 20442U 90005G 26095.27317091 .00000208 00000-0 91070-4 0 9999 2 20442 98.8912 115.0510 0012553 62.8510 297.3952 14.34099913891943 EYESAT A 1 22825U 93061C 26095.13867373 .00000158 00000-0 77285-4 0 9995 2 22825 98.6929 162.5617 0007547 320.7538 39.3096 14.30922415696555 ITAMSAT 1 22826U 93061D 26095.13979767 .00000172 00000-0 81941-4 0 9997 2 22826 98.6878 162.4731 0007840 302.0253 58.0167 14.31347348696866 RADIO ROSTO 1 23439U 94085A 26095.21355807 -.00000050 00000-0 -20727-3 0 9998 2 23439 64.8169 61.2314 0153679 17.1170 343.4858 11.27583833287678 JAS 2 1 24278U 96046B 26095.11453191 .00000010 00000-0 49260-4 0 9991 2 24278 98.5334 313.9546 0348881 286.1171 70.1831 13.53270581463284 TECHSAT 1B 1 25397U 98043D 26095.22203457 .00000113 00000-0 68983-4 0 9990 2 25397 99.0053 86.1499 0002305 76.7559 283.3876 14.24413734440941 ISS (ZARYA) 1 25544U 98067A 26095.03712624 .00009326 00000-0 17854-3 0 9995 2 25544 51.6327 302.0967 0006295 273.6206 86.4063 15.48778120560417 PCSAT 1 26931U 01043C 26095.23998755 .00000264 00000-0 12927-3 0 9995 2 26931 67.0498 72.9417 0006818 264.5411 95.4914 14.31926836280008 SAUDISAT 1C 1 27607U 02058C 26095.12210001 .00001899 00000-0 24059-3 0 9996 2 27607 64.5552 355.0194 0075478 275.8009 83.4496 14.82889051253628 CUTE-1 1 27844U 03031E 26094.97812161 .00000458 00000-0 21713-3 0 9992 2 27844 98.6769 104.4513 0010325 43.9369 316.2630 14.24289350181251 CUBESAT XI 4 1 27848U 03031J 26095.00030604 .00000375 00000-0 18383-3 0 9992 2 27848 98.6802 104.2449 0010480 60.3929 299.8292 14.23580899180964 MOZHAYETS 4 1 27939U 03042A 26095.29683566 .00002116 00000-0 33479-3 0 9995 2 27939 98.3454 277.6023 0012122 135.5495 36.6553 14.73335037204811 CUBESAT XI 5 1 28895U 05043F 26095.21955321 .00002651 00000-0 42563-3 0 9991 2 28895 98.2886 249.3545 0015301 79.0212 281.2715 14.72437411 91019 CUTE-1.7+APD 2 1 32785U 08021C 26095.24552648 .00007163 00000-0 45989-3 0 9999 2 32785 97.8239 75.2076 0007178 278.9265 81.1150 15.08760642974199 SEEDS 1 32791U 08021J 26095.21828436 .00023732 00000-0 81081-3 0 9997 2 32791 97.7527 89.7798 0003015 158.9144 201.2220 15.30294749976128 YUBELEINY 1 32953U 08025A 26095.26574293 .00000047 00000-0 26262-3 0 9999 2 32953 82.5058 40.7894 0020413 108.5712 251.7587 12.43177068810630 KKS-1 (KISEKI) 1 33499U 09002H 26095.18592010 .00002520 00000-0 31728-3 0 9990 2 33499 98.1188 16.4862 0008240 157.1678 202.9903 14.82934969925377 SWISSCUBE 1 35932U 09051B 26095.23210999 .00001815 00000-0 36901-3 0 9991 2 35932 98.4078 1.8437 0008090 80.6523 279.5592 14.62337809878492 BEESAT 1 35933U 09051C 26094.99876049 .00001439 00000-0 29930-3 0 9994 2 35933 98.4009 1.3930 0006548 92.8438 267.3512 14.61597876878494 ITUPSAT 1 1 35935U 09051E 26095.19989211 .00001367 00000-0 29280-3 0 9993 2 35935 98.4093 0.8653 0008674 102.3407 257.8764 14.60328249878083 XIWANG-1 (HOPE-1) 1 36122U 09072B 26095.28472072 .00000177 00000-0 58061-3 0 9994 2 36122 100.3966 50.3047 0008036 43.5004 316.6742 13.16438385783417 TISAT 1 1 36799U 10035E 26095.27463230 .00026947 00000-0 95773-3 0 9994 2 36799 98.0673 35.5460 0004300 117.9861 242.1812 15.28979942856557 JUGNU 1 37839U 11058B 26095.16955251 .00000570 00000-0 15802-3 0 9992 2 37839 19.9620 32.0253 0018437 350.5168 40.3194 14.13753627748688 SRMSAT 1 37841U 11058D 26094.43294969 .00000492 00000-0 12313-3 0 9993 2 37841 19.9707 145.8850 0011920 111.8741 15.3851 14.11557506747382 HORYU 2 1 38340U 12025D 26095.08154333 .00005360 00000-0 55288-3 0 9992 2 38340 98.2057 225.0995 0009078 66.5729 293.6441 14.90623615737836 STRAND 1 1 39090U 13009E 26095.23056663 .00000503 00000-0 18366-3 0 9992 2 39090 98.3906 277.2648 0009857 89.8163 270.4154 14.37119172686580 CUBEBUG 1 1 39153U 13018D 26095.18080268 .00006247 00000-0 54955-3 0 9999 2 39153 98.1578 251.9289 0012265 37.0281 323.1783 14.96848022700147 ZACUBE 1 39417U 13066B 26095.13875085 .00006185 00000-0 48411-3 0 9990 2 39417 97.8146 57.0918 0044993 134.2019 226.2915 15.00595153669776 TRITON 1 1 39427U 13066M 26095.28645381 .00003525 00000-0 42610-3 0 9991 2 39427 97.8283 6.7630 0091876 111.5118 249.5921 14.81355136663290 GOMX 1 1 39430U 13066Q 26095.25034567 .00002030 00000-0 31199-3 0 9990 2 39430 97.6535 300.2983 0128048 312.2182 46.8213 14.69206231659203 HUMSAT D 1 39433U 13066T 26068.77891092 .07089284 25853-5 14695-2 0 9996 2 39433 97.4699 82.1645 0007750 211.8767 148.2059 16.31051261671486 CUBEBUG 2 1 39440U 13066AA 26095.30272076 .00005449 00000-0 51027-3 0 9995 2 39440 97.8853 44.0303 0056639 269.2046 90.2684 14.93272372666113 FUNCUBE 1 1 39444U 13066AE 26095.18031921 .00011812 00000-0 74891-3 0 9992 2 39444 97.8239 65.1851 0039093 92.0712 268.4993 15.08440482668653 UWE-3 1 39446U 13066AG 26095.14421561 .00005905 00000-0 51308-3 0 9997 2 39446 97.8633 50.7911 0048973 201.3754 158.5422 14.96461292666650 UNISAT 6 1 40012U 14033C 26095.24019388 .00004828 00000-0 52492-3 0 9992 2 40012 97.7782 249.2953 0044148 309.9374 49.7967 14.87831103635315 DUCHIFAT 1 1 40021U 14033M 26095.27149655 .00081314 00000-0 12684-2 0 9999 2 40021 98.0571 144.8991 0003100 342.7957 17.3189 15.53558422644391 QB50P1 1 40025U 14033R 26094.96602727 .00012738 00000-0 64496-3 0 9995 2 40025 98.1002 101.0367 0010585 113.0107 247.2242 15.17106884641929 OBJECT G 1 40905U 15049G 26095.22431073 .00045483 00000-0 53531-3 0 9995 2 40905 97.4655 135.1804 0007342 121.7586 238.4388 15.61257603585048 LILACSAT 2 1 40908U 15049K 26095.26750574 .00022032 00000-0 40645-3 0 9999 2 40908 97.4751 129.4274 0008479 145.8025 214.3774 15.49096413584454 LQSAT 1 40958U 15057A 26095.22969836 .00002068 00000-0 30167-3 0 9997 2 40958 97.6673 92.2296 0017755 144.7088 215.5302 14.76691937564548 CHUBUSAT 2 1 41338U 16012B 26095.27870826 .00008534 00000-0 37903-3 0 9996 2 41338 30.9982 79.5695 0008417 53.2268 306.9145 15.20146377557314 CHUBUSAT 3 1 41339U 16012C 26095.29594841 .00008131 00000-0 38474-3 0 9996 2 41339 31.0043 87.3482 0008784 43.0246 317.1080 15.17955510557119 PRATHAM 1 41783U 16059A 26094.99614293 .00001172 00000-0 21539-3 0 9992 2 41783 97.8328 95.0778 0032793 91.7632 268.7329 14.67091771508788 ALSAT 1N 1 41789U 16059G 26095.24512007 .00002073 00000-0 35813-3 0 9998 2 41789 97.8027 101.8468 0027386 62.6270 297.7718 14.69186030509295